Tracking 29892 objects as of 21-Nov-2024
HD Live streaming from Space Station
objects crossing your sky now

CZ-6A DEB

Track CZ-6A DEB now!
10-day predictions


NORAD ID: 56600
Int'l Code: 2022-151ADY
Perigee: 647.8 km
Apogee: 767.2 km
Inclination: 98.6 °
Period: 98.8 minutes
Semi major axis: 7078 km
RCS: Unknown
Launch date: November 11, 2022
Source: People's Republic of China (PRC)
Launch site: Taiyaun Space Center, China (TSC)

Note: This is SATELLITE DEBRIS
Your satellite tracking list
Your tracking list is empty




NASA's NSSDC Master Catalog

Two Line Element Set (TLE):
1 56600U 22151ADY 24316.02543568  .00039876  00000-0  82718-2 0  9998
2 56600  98.6342 342.6272 0084370 286.4288  72.7649 14.57773476 90484
Source of the keplerian elements: AFSPC